Regional Weather Roundup
Issued by NWS Jackson, KY

Home | Current Version | Previous Version | Text Only | Print | Product List | Glossary Off
Versions: 1 2 3 4 5 6 7 8 9 10 11 12 13 14 15 16 17 18 19 20 21 22 23 24 25 26 27 28 29 30 31 32 33 34 35 36 37 38 39 40 41 42 43 44 45 46 47 48 49 50

000
ASUS43 KJKL 032110
RWRJKL

EAST KENTUCKY HOURLY WEATHER ROUNDUP
NATIONAL WEATHER SERVICE JACKSON KY
500 PM EDT FRI JUL 03 2015

NOTE: "FAIR" INDICATES FEW OR NO CLOUDS BELOW 12,000 FEET WITH
NO SIGNIFICANT WEATHER AND/OR OBSTRUCTIONS TO VISIBILITY.

* THESE REPORTS ARE NOT UNDER NWS QUALITY CONTROL AND MAY NOT
  REPORT WEATHER SUCH AS PRECIPITATION AND FOG.

KYZ079-080-083-085-087-088-110-112-115-119-120-032200
...EASTERN KENTUCKY...

CITY           SKY/WX    TMP DP  RH WIND       PRES   REMARKS
JACKSON        MOSUNNY   76  68  76 VRB3      29.89S
LONDON         PTSUNNY   79  65  62 SW9       29.87F
SOMERSET*      TSTM      70  63  78 S15G44    29.87S VSB 1/2
MONTICELLO*    MOSUNNY   80  72  76 SW13      29.89F
MIDDLESBORO*   RAIN      75  71  87 CALM      29.89F
HARLAN APT*      N/A     73  68  83 W5        29.90F
HAZARD APT*    CLOUDY    75  72  88 CALM      29.88F
BLACK MTN*       N/A     63  63 100 SW6         N/A
PIKEVILLE APT* CLOUDY    73  70  88 CALM      29.90S
BIG SANDY*     CLOUDY    74  68  80 W6        29.89S
MOREHEAD APT*  MOCLDY    75  70  83 SW9       29.87S
$$

KYZ035-036-041-042-044-050-067-078-099-032200
...CENTRAL KENTUCKY...

CITY           SKY/WX    TMP DP  RH WIND       PRES   REMARKS
MT STERLING*   LGT RAIN  72  70  94 W3        29.87S
FLEMING/MASON* PTSUNNY   73  68  83 N7        29.85
DANVILLE*      LGT RAIN  77  70  78 NW7       29.87R
RICHMOND*      MOSUNNY   79  66  65 S6        29.84F
LEXINGTON      LGT RAIN  71  69  93 CALM      29.84F
FRANKFORT      CLOUDY    74  70  87 S8        29.84F
$$

KYZ091>093-OHZ055-061-077-WVZ005-015-034-035-042-032200
...SOUTHERN OHIO/WEST VIRGINIA...

CITY           SKY/WX    TMP DP  RH WIND       PRES   REMARKS
COVINGTON      CLOUDY    74  65  73 N14       29.86F
COLUMBUS       CLOUDY    73  64  73 N8        29.88F
DAYTON         CLOUDY    74  63  68 E5        29.90F
WILMINGTON     CLOUDY    70  62  76 E8        29.88S
HUNTINGTON       N/A    N/A N/A N/A MISG      29.84F
CHARLESTON     LGT RAIN  72  69  90 SE5       29.86F
PINEVILLE*     LGT RAIN  74  73  96 MISG      29.94F
BECKLEY        LGT RAIN  69  65  86 SE7       29.94F
BLUEFIELD      LGT RAIN  69  63  81 VRB6      29.96F
$$

VAZ002-007-008-TNZ017-027-036-066-071-032200
...SOUTHWEST VIRGINIA/EAST TENNESSEE...

CITY           SKY/WX    TMP DP  RH WIND       PRES   REMARKS
WISE*          CLOUDY    72  68  88 S7        29.96S
JONESVILLE*      N/A    N/A N/A N/A MISG        N/A
ABINGDON*      CLOUDY    71  70  95 SW6       29.95F
BRISTOL        CLOUDY    73  68  84 SW9       29.92F
KNOXVILLE      CLOUDY    76  69  79 SW22G29   29.92S
OAK RIDGE      PTSUNNY   78  69  73 SW8       29.92S
CROSSVILLE     CLOUDY    72  68  87 SW8G17    29.96F
NASHVILLE      CLOUDY    76  70  82 SW12G22   29.90S
$$

...KEY TO REMARKS...
VSB - VISIBILITY IN MILES
WCI - WIND CHILL INDEX
HX  - HEAT INDEX

$$


USA.gov is the U.S. government's official web portal to all federal, state and local government web resources and services.